一网星座-0122星 (ONEWEB-0122 )

导读 | 星芒AI

ONEWEB-0122 是 OneWeb 卫星通信公司发射的低轨通信卫星之一,旨在为全球提供高速互联网服务。该卫星属于 OneWeb 的星座计划,部署在约 1200 公里的近地轨道,支持偏远和农村地区的宽带接入。ONEWEB-0122 采用先进通信技术,具备高带宽和低延迟特性,助力实现全球数字连接。该卫星于 2023 年发射,是 OneWeb 恢复运营并扩大网络覆盖的重要组成部分。

基本信息
目录编号:
47268
目录名称:
ONEWEB-0122
国际标识:
2020-100L
轨道中心:
EARTH
卫星名称:
一网星座-0122星
卫星全名:
一网星座-0122星 (ONEWEB-0122 )
卫星状态:
在轨 (已飞行1765 天)
发射日期:
2020-12-18 UTC
国别 :
英国 (GB)
星等 :
--
轨道信息
数据来源 国际轨道数据
星历时间: 2025-10-18T04:30:33+0800
9小时前
查看轨道信息
半长轴: 7591.866km
偏心率: 0.0001893
轨道倾角: 87.896°
近地点辐角 104.906°
升交点赤经 38.794°
平近点角 255.228°
近地点: 1212.293km
远地点: 1215.169km
周期: 109.719分钟
每日圈数: 13.124416
详细信息
平衡模式:
三轴稳定
覆盖范围:
全球
运营商:
一网卫星公司
运营商所在国:
英国
制造商(研发单位):
一网卫星公司
制造商所在国:
英国
使用方式:
暂无
卫星简介
OneWeb卫星网络由648颗重约125公斤的微型卫星组成,运行在1200公里的轨道上。 每颗卫星都能够提供至少每秒8千兆位的吞吐量,以使用其高吞吐量的Ku频段有效载荷为家庭和移动平台提供互联网接入。该卫星仍在工作。
2D轨道图
3D轨道图
轨道高度分析图
轨道倾角分析图
轨道综合分析图
查看轨道综合分析图